Powrót do katalogu

STARLINK-35934

AktywnyŁącznośćSSO
NORAD 67542·PAYLOAD·🇺🇸 United States

Wystrzelony Jan 22, 2026 z Vandenberg Space Force Base

Loading…

Następne Przeloty (najbliższe 24 godziny)

TLE

ŚwieżeSource: CelesTrak SupGP

Epoka: Sep 14, 2026, 22:48 UTC

1 67542C 26014L   26257.95048611  .00030231  00000+0  93887-3 0  2576
2 67542  97.2847 143.4631 0001757  88.6967 221.4419 15.33408917    14

Śledź STARLINK-35934 w czasie rzeczywistym z AllMySat

Download on the App Store